Tracking 18816 objects as of 17-October-2017
HD Live streaming from Space Station
objects crossing your sky now

ABS 3

Track ABS 3 now!
ABS 3 is classified as:


NORAD ID: 24901
Int'l Code: 1997-042A
Perigee: 35,836.1 km
Apogee: 35,904.6 km
Inclination: 5.1 °
Period: 1,440.0 minutes
Semi major axis: 42241 km
RCS: 10 m2 (large)
Launch date: August 19, 1997
Source: People's Republic of China (PRC)
Launch site: Xichang Space Center, China (XSC)

Most powerful telecommunications satellite in service in the Asia-Pacific region; 30 C-band, 24 Ku-band transponders; 190 high fidelity channels and 50,000 simultaneous telephone links.
aabbcc
Your satellite tracking list
Your tracking list is empty





NASA's NSSDC Master Catalog

Two Line Element Set (TLE):
1 24901U 97042A   17290.06924434  .00000115  00000-0  00000+0 0  9995
2 24901   5.1069  62.5575 0008107 147.3544 249.0324  0.99999145 73798
Source of the keplerian elements: AFSPC